TimeEST,TemperatureF,Dew PointF,Humidity,Sea Level PressureIn,VisibilityMPH,Wind Direction,Wind SpeedMPH,Gust SpeedMPH,PrecipitationIn,Events,Conditions,WindDirDegrees,DateUTC
12:16 AM,32.0,28.4,87,30.14,7.0,NNE,11.5,21.9,N/A,,Overcast,30,2013-03-07 05:16:00
12:38 AM,32.0,28.4,87,30.14,6.0,NNE,12.7,-,N/A,Snow,Light Snow,30,2013-03-07 05:38:00
12:55 AM,32.2,28.8,87,30.14,7.0,NNE,13.8,-,0.00,Snow,Light Snow,20,2013-03-07 05:55:00
1:55 AM,31.8,27.5,84,30.11,10.0,North,13.8,24.2,0.00,,Overcast,10,2013-03-07 06:55:00
2:55 AM,31.3,26.8,83,30.10,7.0,NNE,12.7,19.6,N/A,,Overcast,20,2013-03-07 07:55:00
3:13 AM,32.0,26.6,80,30.10,7.0,NNE,11.5,21.9,N/A,,Overcast,20,2013-03-07 08:13:00
3:55 AM,31.6,25.5,78,30.09,10.0,NNE,16.1,20.7,N/A,,Overcast,20,2013-03-07 08:55:00
4:55 AM,31.5,24.4,75,30.09,10.0,NNE,17.3,21.9,N/A,,Overcast,20,2013-03-07 09:55:00
5:55 AM,31.5,23.5,73,30.09,10.0,NNE,19.6,35.7,N/A,,Overcast,20,2013-03-07 10:55:00
6:55 AM,31.6,23.4,71,30.09,10.0,NNE,21.9,29.9,N/A,,Overcast,20,2013-03-07 11:55:00
7:55 AM,32.2,23.9,72,30.09,10.0,NNE,19.6,27.6,N/A,,Overcast,30,2013-03-07 12:55:00
8:08 AM,32.0,24.8,75,30.09,4.0,NNE,20.7,25.3,N/A,Snow,Light Snow,20,2013-03-07 13:08:00
8:55 AM,32.4,24.6,73,30.10,10.0,NNE,13.8,25.3,0.00,,Overcast,30,2013-03-07 13:55:00
9:09 AM,32.0,24.8,75,30.10,5.0,NNE,17.3,26.5,N/A,Snow,Light Snow,20,2013-03-07 14:09:00
9:55 AM,32.7,25.0,73,30.09,4.0,NNE,16.1,29.9,0.00,Snow,Light Snow,30,2013-03-07 14:55:00
10:09 AM,32.0,24.8,75,30.09,2.0,NNE,25.3,34.5,N/A,Snow,Light Snow,20,2013-03-07 15:09:00
10:19 AM,32.0,26.6,80,30.09,0.8,NNE,16.1,34.5,N/A,Snow,Light Snow,20,2013-03-07 15:19:00
10:55 AM,32.2,27.9,84,30.09,1.2,NNE,13.8,24.2,0.00,Snow,Light Snow,20,2013-03-07 15:55:00
11:55 AM,32.7,28.8,85,30.09,1.0,NNE,12.7,19.6,0.01,Snow,Light Snow,30,2013-03-07 16:55:00
12:25 PM,32.0,30.2,93,30.09,0.6,NNE,12.7,20.7,N/A,Snow,Light Snow,20,2013-03-07 17:25:00
12:38 PM,32.0,30.2,93,30.08,1.0,NNE,16.1,19.6,N/A,Snow,Light Snow,20,2013-03-07 17:38:00
12:55 PM,33.1,29.8,88,30.08,1.2,NNE,12.7,20.7,0.02,Snow,Light Snow,20,2013-03-07 17:55:00
1:55 PM,33.3,29.3,85,30.08,1.0,NNE,13.8,23.0,0.01,Snow,Light Snow,20,2013-03-07 18:55:00
2:44 PM,32.0,28.4,87,30.08,0.8,North,12.7,-,N/A,Snow,Light Snow,10,2013-03-07 19:44:00
2:55 PM,32.4,29.1,88,30.08,0.6,North,15.0,24.2,0.02,Snow,Light Snow,10,2013-03-07 19:55:00
3:55 PM,31.6,28.6,88,30.07,1.0,North,13.8,20.7,0.02,Snow,Light Snow,10,2013-03-07 20:55:00
4:26 PM,32.0,28.4,87,30.08,2.0,North,12.7,17.3,N/A,Snow,Light Snow,360,2013-03-07 21:26:00
4:37 PM,32.0,28.4,87,30.08,10.0,North,15.0,20.7,N/A,Snow,Light Snow,10,2013-03-07 21:37:00
4:55 PM,31.6,27.7,85,30.07,10.0,North,17.3,21.9,0.00,Snow,Light Snow,360,2013-03-07 21:55:00
5:24 PM,32.0,26.6,80,30.08,10.0,North,11.5,21.9,N/A,Snow,Light Snow,350,2013-03-07 22:24:00
5:55 PM,32.2,26.1,78,30.07,10.0,North,12.7,-,0.00,,Overcast,360,2013-03-07 22:55:00
6:55 PM,33.4,23.9,68,30.06,7.0,North,17.3,23.0,0.00,Snow,Light Snow,10,2013-03-07 23:55:00
7:55 PM,34.0,23.2,65,30.06,7.0,North,11.5,25.3,0.00,Snow,Light Snow,10,2013-03-08 00:55:00
8:55 PM,34.0,24.1,67,30.06,7.0,NNE,24.2,33.4,0.00,Snow,Light Snow,20,2013-03-08 01:55:00
9:55 PM,32.2,26.4,79,30.04,7.0,North,12.7,20.7,0.00,Snow,Light Snow,360,2013-03-08 02:55:00
10:30 PM,32.0,26.6,80,30.04,1.2,North,15.0,-,N/A,Snow,Light Snow,10,2013-03-08 03:30:00
10:55 PM,31.1,27.5,87,30.04,1.2,North,10.4,19.6,0.01,Snow,Light Snow,10,2013-03-08 03:55:00
11:23 PM,30.2,28.4,93,30.04,0.8,North,10.4,19.6,N/A,Snow,Light Snow,10,2013-03-08 04:23:00
11:55 PM,30.6,27.7,89,30.03,1.0,North,12.7,-,0.02,Snow,Light Snow,10,2013-03-08 04:55:00